| time (UTC) | temp F | wind direction | speed knots | gust knots | rain 1hr in | rain 24hr in | rain mn in | humidity % | barometer mb |
| 20260906053057 | 73 | 286 | 1.7 | 5.2 | 0.00 | 0.00 | 0.00 | 79 | 1013.0 |
| 20260906051607 | 73 | 269 | 0.9 | 5.2 | 0.00 | 0.00 | 0.00 | 79 | 1013.0 |
| 20260906050110 | 74 | 272 | 2.6 | 5.2 | 0.00 | 0.00 | 0.00 | 76 | 1013.0 |
| 20260906044559 | 74 | 273 | 1.7 | 5.2 | 0.00 | 0.00 | 0.00 | 75 | 1013.0 |
| 20260906043104 | 73 | 271 | 1.7 | 2.6 | 0.00 | 0.00 | 0.00 | 75 | 1013.0 |
| 20260906041605 | 73 | 269 | 0.9 | 1.7 | 0.00 | 0.00 | 0.00 | 76 | 1013.0 |
| 20260906034639 | 73 | 271 | 0.9 | 1.7 | 0.00 | 0.00 | 0.00 | 76 | 1012.9 |
| 20260906033056 | 73 | 0 | 0.0 | 0.0 | 0.00 | 0.00 | 0.00 | 74 | 1012.7 |
| 20260906031554 | 74 | 0 | 0.0 | 2.6 | 0.00 | 0.00 | 0.00 | 73 | 1012.8 |
| 20260906030056 | 74 | 0 | 0.0 | 2.6 | 0.00 | 0.00 | 0.00 | 72 | 1012.7 |
| 20260906024602 | 74 | 277 | 0.0 | 2.6 | 0.00 | 0.00 | 0.00 | 72 | 1012.7 |
| 20260906023058 | 73 | 271 | 0.9 | 3.5 | 0.00 | 0.00 | 0.00 | 72 | 1012.6 |
| 20260906021604 | 74 | 0 | 0.0 | 3.5 | 0.00 | 0.00 | 0.00 | 77 | 1012.6 |
| 20260906020100 | 74 | 250 | 0.9 | 5.2 | 0.00 | 0.00 | 0.00 | 76 | 1012.7 |
| 20260906014554 | 74 | 360 | 1.7 | 7.0 | 0.00 | 0.00 | 0.00 | 77 | 1012.7 |
| 20260906013106 | 75 | 259 | 3.5 | 7.8 | 0.00 | 0.00 | 0.00 | 75 | 1012.7 |
| 20260906011556 | 76 | 256 | 4.3 | 8.7 | 0.00 | 0.00 | 0.00 | 70 | 1012.8 |
| 20260906010058 | 79 | 262 | 4.3 | 7.8 | 0.00 | 0.00 | 0.00 | 67 | 1012.7 |
| 20260906004603 | 78 | 263 | 4.3 | 7.8 | 0.00 | 0.00 | 0.00 | 68 | 1012.5 |
| 20260906003059 | 79 | 360 | 3.5 | 8.7 | 0.00 | 0.00 | 0.00 | 67 | 1012.6 |
| 20260906001555 | 80 | 254 | 3.5 | 8.7 | 0.00 | 0.00 | 0.00 | 66 | 1012.4 |
| 20260906000106 | 80 | 360 | 3.5 | 8.7 | 0.00 | 0.00 | 0.00 | 64 | 1012.5 |
| 20260905234620 | 79 | 244 | 5.2 | 12.2 | 0.00 | 0.00 | 0.00 | 67 | 1012.6 |
| 20260905233102 | 79 | 360 | 6.1 | 10.4 | 0.00 | 0.00 | 0.00 | 65 | 1012.5 |
| 20260905231555 | 79 | 249 | 5.2 | 10.4 | 0.00 | 0.00 | 0.00 | 63 | 1012.5 |
| 20260905230104 | 79 | 257 | 6.1 | 10.4 | 0.00 | 0.00 | 0.00 | 66 | 1012.5 |
| 20260905224553 | 79 | 238 | 5.2 | 10.4 | 0.00 | 0.00 | 0.00 | 66 | 1012.7 |
| 20260905223057 | 80 | 234 | 6.1 | 10.4 | 0.00 | 0.00 | 0.00 | 64 | 1012.8 |
| 20260905221601 | 80 | 300 | 5.2 | 12.2 | 0.00 | 0.00 | 0.00 | 62 | 1012.9 |
| 20260905214605 | 80 | 360 | 5.2 | 10.4 | 0.00 | 0.00 | 0.00 | 54 | 1013.2 |
| 20260905213101 | 80 | 360 | 5.2 | 9.6 | 0.00 | 0.00 | 0.00 | 62 | 1013.3 |
| 20260905211556 | 79 | 270 | 6.1 | 10.4 | 0.00 | 0.00 | 0.00 | 66 | 1013.5 |
| 20260905210105 | 79 | 360 | 4.3 | 9.6 | 0.00 | 0.00 | 0.00 | 62 | 1013.5 |
| 20260905204555 | 80 | 248 | 4.3 | 9.6 | 0.00 | 0.00 | 0.00 | 65 | 1013.8 |
| 20260905203111 | 78 | 250 | 6.1 | 9.6 | 0.00 | 0.00 | 0.00 | 67 | 1013.9 |
| 20260905201557 | 77 | 248 | 4.3 | 8.7 | 0.00 | 0.00 | 0.00 | 69 | 1014.0 |
| 20260905194603 | 76 | 360 | 4.3 | 9.6 | 0.00 | 0.00 | 0.00 | 69 | 1014.1 |
| 20260905193102 | 76 | 261 | 4.3 | 8.7 | 0.00 | 0.00 | 0.00 | 69 | 1014.3 |
| 20260905191555 | 76 | 265 | 3.5 | 8.7 | 0.00 | 0.00 | 0.00 | 69 | 1014.5 |
| 20260905190103 | 76 | 248 | 5.2 | 7.8 | 0.00 | 0.00 | 0.00 | 67 | 1014.5 |
| 20260905184606 | 76 | 257 | 3.5 | 8.7 | 0.00 | 0.00 | 0.00 | 67 | 1014.6 |
| 20260905183107 | 76 | 360 | 3.5 | 8.7 | 0.00 | 0.00 | 0.00 | 67 | 1014.9 |
| 20260905181555 | 74 | 250 | 5.2 | 10.4 | 0.00 | 0.00 | 0.00 | 70 | 1014.9 |
| 20260905180100 | 74 | 240 | 4.3 | 7.0 | 0.00 | 0.00 | 0.00 | 68 | 1014.9 |
| 20260905174606 | 75 | 254 | 2.6 | 7.0 | 0.00 | 0.00 | 0.00 | 65 | 1014.7 |
| 20260905173102 | 74 | 290 | 3.5 | 6.1 | 0.00 | 0.00 | 0.00 | 64 | 1014.5 |
| 20260905171635 | 76 | 248 | 1.7 | 4.3 | 0.00 | 0.00 | 0.00 | 60 | 1014.5 |
| 20260905170105 | 75 | 254 | 0.9 | 5.2 | 0.00 | 0.00 | 0.00 | 60 | 1014.4 |
| 20260905164556 | 77 | 253 | 0.9 | 3.5 | 0.00 | 0.00 | 0.00 | 58 | 1014.4 |
| 20260905163056 | 76 | 263 | 1.7 | 4.3 | 0.00 | 0.00 | 0.00 | 61 | 1014.3 |
| 20260905161558 | 76 | 236 | 0.9 | 3.5 | 0.00 | 0.00 | 0.00 | 59 | 1014.3 |
| 20260905160107 | 79 | 112 | 1.7 | 7.8 | 0.00 | 0.00 | 0.00 | 56 | 1014.3 |
| 20260905154620 | 76 | 87 | 0.9 | 3.5 | 0.00 | 0.00 | 0.00 | 65 | 1014.3 |
| 20260905153053 | 71 | 51 | 0.0 | 2.6 | 0.00 | 0.00 | 0.00 | 68 | 1014.2 |
| 20260905151601 | 74 | 55 | 0.9 | 2.6 | 0.00 | 0.00 | 0.00 | 65 | 1014.2 |
| 20260905150105 | 72 | 55 | 0.9 | 3.5 | 0.00 | 0.00 | 0.00 | 67 | 1014.0 |
| 20260905144556 | 73 | 0 | 0.0 | 1.7 | 0.00 | 0.00 | 0.00 | 66 | 1014.0 |
| 20260905143102 | 71 | 5 | 0.9 | 2.6 | 0.00 | 0.00 | 0.00 | 72 | 1013.9 |
| 20260905141557 | 69 | 5 | 0.0 | 1.7 | 0.00 | 0.00 | 0.00 | 78 | 1013.5 |
| 20260905140057 | 66 | 0 | 0.0 | 2.6 | 0.00 | 0.00 | 0.00 | 84 | 1013.5 |
| 20260905134602 | 62 | 5 | 0.9 | 3.5 | 0.00 | 0.00 | 0.00 | 86 | 1013.2 |
| 20260905133056 | 61 | 9 | 0.9 | 3.5 | 0.00 | 0.00 | 0.00 | 86 | 1012.9 |
| 20260905131555 | 61 | 352 | 0.9 | 3.5 | 0.00 | 0.00 | 0.00 | 86 | 1012.9 |
| 20260905130101 | 61 | 348 | 0.9 | 3.5 | 0.00 | 0.00 | 0.00 | 86 | 1013.0 |
| 20260905124558 | 61 | 360 | 0.9 | 2.6 | 0.00 | 0.00 | 0.00 | 86 | 1013.1 |
| 20260905123056 | 62 | 5 | 0.9 | 3.5 | 0.00 | 0.00 | 0.00 | 86 | 1013.1 |
| 20260905121600 | 62 | 15 | 1.7 | 3.5 | 0.00 | 0.00 | 0.00 | 86 | 1013.1 |
| 20260905120059 | 62 | 12 | 0.9 | 2.6 | 0.00 | 0.00 | 0.00 | 86 | 1013.1 |
| 20260905114607 | 62 | 0 | 1.7 | 3.5 | 0.00 | 0.00 | 0.00 | 86 | 1013.0 |
| 20260905113054 | 62 | 5 | 0.0 | 2.6 | 0.00 | 0.00 | 0.00 | 86 | 1013.1 |
| 20260905111622 | 62 | 0 | 0.0 | 2.6 | 0.00 | 0.00 | 0.00 | 86 | 1013.2 |
| 20260905110106 | 62 | 360 | 0.9 | 2.6 | 0.00 | 0.00 | 0.00 | 86 | 1013.3 |
| 20260905104619 | 62 | 343 | 0.0 | 3.5 | 0.00 | 0.00 | 0.00 | 86 | 1013.3 |
| 20260905103056 | 62 | 338 | 0.0 | 1.7 | 0.00 | 0.00 | 0.00 | 86 | 1013.3 |
| 20260905101554 | 63 | 338 | 0.9 | 2.6 | 0.00 | 0.00 | 0.00 | 86 | 1013.3 |
| 20260905100056 | 63 | 323 | 0.9 | 2.6 | 0.00 | 0.00 | 0.00 | 86 | 1013.4 |
| 20260905094715 | 63 | 0 | 0.0 | 1.7 | 0.00 | 0.00 | 0.00 | 86 | 1013.4 |
| 20260905093126 | 63 | 0 | 0.9 | 1.7 | 0.00 | 0.00 | 0.00 | 86 | 1013.4 |
| 20260905091602 | 63 | 284 | 0.9 | 1.7 | 0.00 | 0.00 | 0.00 | 86 | 1013.5 |
| 20260905090052 | 63 | 0 | 0.0 | 1.7 | 0.00 | 0.00 | 0.00 | 86 | 1013.5 |
| 20260905084605 | 64 | 284 | 0.9 | 2.6 | 0.00 | 0.00 | 0.00 | 86 | 1013.6 |
| 20260905083056 | 64 | 283 | 0.0 | 2.6 | 0.00 | 0.00 | 0.00 | 85 | 1013.8 |
| 20260905081557 | 64 | 259 | 0.9 | 1.7 | 0.00 | 0.00 | 0.00 | 86 | 1014.0 |
| 20260905080107 | 64 | 259 | 0.0 | 0.9 | 0.00 | 0.00 | 0.00 | 86 | 1014.3 |
| 20260905074602 | 64 | 259 | 0.9 | 1.7 | 0.00 | 0.00 | 0.00 | 85 | 1014.2 |
| 20260905073110 | 65 | 0 | 0.0 | 1.7 | 0.00 | 0.00 | 0.00 | 85 | 1014.1 |
| 20260905071556 | 65 | 0 | 0.0 | 0.0 | 0.00 | 0.00 | 0.00 | 85 | 1014.3 |
| 20260905070057 | 65 | 0 | 0.0 | 0.9 | 0.00 | 0.00 | 0.00 | 85 | 1014.3 |
| 20260905064553 | 65 | 0 | 0.0 | 0.0 | 0.00 | 0.00 | 0.00 | 85 | 1014.3 |
| 20260905063058 | 65 | 0 | 0.0 | 0.0 | 0.00 | 0.00 | 0.00 | 85 | 1014.4 |
| 20260905061605 | 65 | 0 | 0.0 | 0.0 | 0.00 | 0.00 | 0.00 | 84 | 1014.2 |
| 20260905060107 | 65 | 0 | 0.0 | 0.9 | 0.00 | 0.00 | 0.00 | 84 | 1014.1 |
| 20260905054607 | 65 | 0 | 0.0 | 0.0 | 0.00 | 0.00 | 0.00 | 84 | 1014.1 |